{"data":{"norad_id":48564,"intl_designator":"2021-041M","name":"STARLINK-2190","alt_names":[],"object_type":"PAYLOAD","status":"ACTIVE","operator":null,"country":"US","launch_date":"2021-05-15","launch_site_code":"AFETR","launch_vehicle":null,"mission":null,"orbit_class":"UNKNOWN","rcs_meters":null,"size_class":null,"mass_kg":null,"dimensions":null,"purposes":["comms"],"wikipedia_slug":null,"has_3d_model":false,"image_url":null,"decayed_at":null,"tle_current":{"epoch":"2026-09-19T19:28:55.224192Z","epoch_age_seconds":96756,"freshness":"FRESH","line1":"1 48564U 21041M   26262.81175028  .00001387  00000+0  56424-4 0  9998","line2":"2 48564  53.1601 303.3007 0000746  61.6762 298.4315 15.31712647295023","mean_motion":15.31712647,"eccentricity":7.46e-5,"inclination_deg":53.1601,"raan_deg":303.3007,"arg_perigee_deg":61.6762,"mean_anomaly_deg":298.4315,"bstar":5.6424e-5,"rev_number":29502,"period_min":94.01241171576,"perigee_km":470.19137202471,"apogee_km":471.21321884759,"semimajor_km":6848.8392954361,"source":"CELESTRAK","updated_at":"2026-09-20T09:00:39.133919Z"}}}